Theta_e
314 315 315 316 316 316 317 316 316 316 316 316 319 321 322 322 317 305 298 309 313 327 320 302 303 308 308 304 308 308 299 296 298 297 300 300 302 304 308 308 311 312 311 315 329
313 314 314 315 315 315 316 316 316 316 316 316 319 320 321 319 305 301 309 318 314 327 307 301 300 305 301 301 302 300 296 298 302 302 303 302 303 304 307 308 310 314 317 324 327
312 312 313 313 314 315 315 315 316 316 315 316 318 320 320 312 297 298 319 321 323 322 313 307 304 305 302 300 299 299 294 298 304 306 307 304 303 307 306 305 308 310 315 321 324
312 312 312 313 313 314 314 315 315 316 316 316 316 319 317 302 288 307 318 321 324 317 311 303 300 301 299 296 298 296 298 300 304 305 305 302 304 304 306 307 311 312 320 322 322
312 311 311 312 313 313 314 314 315 316 316 316 316 318 306 293 294 304 316 314 316 314 306 300 297 300 297 297 297 295 296 299 303 303 303 305 303 304 305 308 313 317 322 322 322
311 311 311 311 312 312 313 314 314 316 317 316 316 313 300 288 301 306 306 313 312 308 305 302 299 302 300 299 296 297 298 298 301 300 302 303 302 304 305 311 314 317 319 322 324
310 311 311 311 311 311 312 313 314 315 315 317 316 309 300 295 304 305 305 308 313 310 304 303 309 306 302 299 301 300 296 297 297 299 298 300 297 301 304 310 312 314 316 319 321
310 310 310 310 311 311 311 312 313 314 315 315 315 308 296 307 307 305 305 307 314 314 309 312 313 309 303 302 298 295 294 290 295 298 298 296 291 296 301 307 309 312 313 316 318
310 310 310 310 309 310 311 311 313 314 315 315 308 303 297 311 303 304 304 306 310 311 310 312 310 303 302 295 292 291 286 289 293 297 297 293 290 294 300 299 304 307 310 312 314
311 310 310 310 309 310 311 311 311 311 311 312 309 298 303 300 305 305 303 308 306 305 305 304 301 296 293 290 284 287 288 288 290 294 295 292 292 294 297 298 299 300 301 302 305
310 310 310 309 309 309 304 299 295 294 297 295 296 298 302 305 307 300 302 306 305 299 291 299 293 289 292 292 290 291 289 288 289 294 294 292 292 294 295 296 296 297 298 299 300
309 309 309 309 309 308 299 294 298 297 290 297 298 298 305 306 298 300 306 297 297 289 295 292 288 293 296 296 291 291 287 285 291 292 292 288 291 293 295 296 297 297 298 298 298
309 309 309 309 308 300 295 295 304 304 290 291 296 299 300 303 298 298 302 298 293 290 291 286 288 294 294 293 291 288 286 286 286 289 288 285 285 288 290 292 294 295 297 296 297
309 309 309 309 297 295 293 299 301 299 276 283 292 298 300 300 294 304 304 297 293 288 290 288 292 292 291 290 292 287 291 290 289 286 281 284 278 283 285 287 288 290 291 293 294
308 308 308 306 294 291 296 299 300 291 264 283 292 303 302 295 297 298 304 299 289 288 288 283 288 289 287 289 293 289 292 290 288 285 283 282 279 282 283 285 288 288 291 292 291
308 307 306 297 293 295 298 298 292 273 263 283 291 291 293 294 296 299 297 301 297 289 288 286 293 291 290 292 294 293 291 290 288 284 277 281 280 280 283 285 286 289 292 293 293
307 307 301 298 290 297 296 288 272 267 279 280 285 290 290 290 292 294 291 291 288 282 281 286 287 291 292 289 292 291 287 279 276 276 276 279 280 281 287 287 287 288 291 293 294
307 305 300 299 297 295 288 277 264 265 272 285 288 289 287 289 290 292 289 288 292 288 284 280 276 287 292 290 288 288 287 281 275 274 275 280 278 282 286 289 291 292 291 292 293
303 294 293 295 298 292 281 265 267 268 283 283 284 278 281 287 288 288 289 288 291 289 283 282 281 289 290 291 291 286 283 289 281 276 277 277 280 285 287 287 289 290 292 293 294
291 289 289 296 294 288 274 270 268 280 286 284 278 281 278 280 283 286 286 289 290 293 292 286 281 287 290 291 291 288 290 282 282 273 270 274 276 279 284 285 288 289 291 292 293
288 282 289 296 292 280 269 265 274 282 284 283 278 278 281 281 280 284 286 288 290 291 294 290 285 285 289 286 285 286 284 285 284 280 273 270 275 282 283 285 286 290 291 293 294
284 274 290 292 278 267 274 268 280 281 285 284 286 279 278 282 280 279 283 288 292 293 287 291 287 279 281 287 289 288 286 285 280 277 278 277 279 285 284 285 287 289 291 292 294
278 284 297 290 269 271 276 276 278 281 283 283 282 284 283 282 276 281 282 291 291 289 288 289 284 278 280 285 287 284 286 286 284 283 277 274 277 286 287 288 289 288 291 292 293
281 277 286 290 279 276 272 270 272 281 281 284 283 284 282 282 282 280 281 285 288 290 294 292 285 281 275 280 282 282 284 287 285 281 280 279 281 283 286 287 289 289 291 291 292
285 279 280 280 281 279 281 277 272 272 278 281 282 282 282 277 280 280 282 283 285 289 288 288 280 281 283 284 283 283 283 284 284 285 281 283 283 286 286 288 289 290 290 290 291
284 283 282 277 282 282 282 276 277 277 277 273 279 281 283 280 280 279 282 282 281 285 284 285 272 278 273 281 281 279 282 284 284 285 286 285 284 287 288 288 288 290 290 290 291
291 289 285 282 279 281 280 280 279 281 282 282 281 281 281 282 284 284 286 285 283 282 282 281 277 272 266 277 278 272 279 282 283 285 286 282 287 288 288 289 289 289 290 291 291
Wind_Speed
15 15 15 16 17 18 17 15 11 12 12 19 21 18 11 7 6 3 6 8 6 10 9 7 7 5 1 1 1 3 4 3 4 6 4 3 5 1 1 5 1 4 4 1 13
14 14 15 16 16 17 18 16 13 11 12 15 19 16 10 4 2 6 9 8 4 5 4 6 6 10 3 1 1 4 4 9 5 5 4 4 4 8 4 4 3 2 2 7 15
14 14 15 16 17 17 18 17 14 10 9 11 19 14 6 1 2 3 3 3 3 1 1 1 4 2 2 1 3 3 6 4 4 3 3 4 2 4 8 3 6 7 7 13 14
12 14 14 16 16 17 17 17 17 15 12 10 14 11 4 1 2 3 7 5 3 6 2 2 3 3 3 4 2 2 4 5 4 2 4 4 5 5 5 5 1 5 11 15 18
12 13 14 15 16 17 17 18 19 17 14 8 9 9 2 2 6 3 4 11 5 2 4 3 4 1 4 4 4 3 2 3 3 3 2 4 3 4 6 1 2 7 11 15 14
12 12 13 14 16 17 17 17 18 17 16 9 4 9 5 2 0 5 6 5 3 0 3 3 3 2 5 3 4 3 2 1 1 2 2 3 1 3 3 4 4 7 8 9 12
12 13 13 14 16 18 18 18 18 19 15 10 2 3 2 9 3 6 3 1 2 3 3 4 3 1 1 2 1 4 4 2 1 2 2 3 1 6 1 3 6 6 5 6 7
10 12 13 14 16 18 20 21 19 17 12 1 1 2 5 6 4 6 3 3 5 7 4 3 1 3 1 1 5 4 4 4 2 2 1 4 7 3 2 4 6 5 5 6 6
8 10 13 15 16 18 20 21 19 10 8 3 1 1 5 6 4 5 3 2 1 2 2 2 2 0 2 4 3 6 3 3 2 1 1 3 7 3 3 3 5 5 5 5 5
9 9 11 15 17 18 20 21 9 3 2 2 2 2 4 5 4 4 3 1 4 1 3 3 3 2 2 3 6 5 4 4 4 1 2 2 8 2 2 1 5 5 5 5 6
9 9 11 13 16 19 9 6 7 5 7 2 8 5 3 7 3 2 2 1 3 4 4 2 3 6 5 3 1 3 3 4 1 0 4 5 6 7 3 3 6 7 6 7 8
9 10 11 12 15 12 4 5 4 3 7 4 4 4 4 2 3 5 3 2 2 3 4 3 4 4 2 2 1 1 3 2 1 2 3 1 10 8 5 6 7 8 8 9 4
9 10 11 12 12 5 2 4 6 2 3 5 2 4 4 2 2 4 2 1 1 4 4 4 2 5 5 2 3 1 3 3 1 1 3 1 7 5 3 3 4 8 7 5 7
8 9 10 15 5 4 2 5 5 2 5 6 2 1 2 2 3 2 5 1 3 5 5 2 0 7 7 3 4 3 4 4 6 4 3 2 6 5 2 7 6 9 7 8 8
6 7 7 8 2 2 5 6 5 4 6 6 4 3 1 1 1 3 4 2 1 2 4 4 4 5 4 5 4 3 2 4 3 4 2 2 2 8 2 5 7 1 3 5 7
3 3 3 3 2 2 6 4 4 8 4 4 5 6 1 1 1 2 4 4 2 2 1 1 1 1 2 5 6 5 4 6 4 2 1 4 5 6 4 5 1 2 3 3 3
1 0 2 1 1 6 4 5 7 6 5 8 4 5 4 2 1 2 3 2 2 4 1 2 1 2 1 7 5 2 2 3 4 3 4 4 1 7 8 6 5 3 2 2 2
4 5 3 1 3 5 4 8 7 4 4 5 4 3 5 6 2 4 7 4 4 4 1 4 2 4 2 3 9 4 4 3 4 2 4 2 7 6 5 2 4 5 5 5 5
6 2 2 4 4 3 7 6 8 7 3 7 3 5 5 4 5 4 4 3 5 4 4 2 1 3 1 1 6 6 7 11 4 1 2 4 7 10 7 6 1 4 5 6 5
3 2 2 6 4 5 7 2 2 4 2 3 2 1 3 5 5 5 1 3 2 5 2 3 2 3 3 1 4 3 7 4 1 4 4 4 4 7 8 2 1 4 6 5 4
4 4 3 5 4 7 4 6 4 5 1 2 1 3 0 0 1 5 5 3 4 4 2 2 1 1 3 2 5 2 4 3 4 3 5 1 6 7 8 6 6 6 6 5 5
3 3 3 3 5 0 2 5 4 3 1 2 0 2 1 3 2 2 3 3 8 5 3 2 2 3 1 0 2 1 6 5 6 5 2 1 10 4 7 7 6 7 5 4 5
3 1 1 4 4 1 0 2 3 2 1 0 1 3 1 3 3 1 3 1 2 3 4 4 2 2 2 3 4 2 3 3 4 4 6 5 8 1 5 7 6 6 6 5 5
4 2 1 1 2 6 4 3 3 2 3 3 2 2 2 3 1 4 4 2 1 2 5 2 4 3 1 1 3 1 3 2 3 4 6 10 11 8 7 6 7 6 4 4 5
2 3 3 4 4 4 4 6 3 2 2 2 3 4 4 1 1 1 2 6 1 3 2 2 3 1 2 3 4 5 5 5 8 14 9 20 14 13 8 5 6 6 4 5 6
5 4 2 1 1 8 8 6 9 3 4 5 5 2 6 6 5 2 1 2 4 4 1 1 3 1 4 5 5 6 9 8 11 10 14 18 23 7 8 7 5 7 6 8 10
1 1 4 5 5 7 6 7 10 8 6 5 7 3 5 6 5 5 5 3 4 2 2 1 4 3 5 4 3 6 8 13 8 8 10 12 23 5 8 8 8 8 8 11 12
Wind_Direction
2 357 354 352 349 347 341 339 325 329 327 332 314 307 287 309 337 12 278 219 303 360 343 331 353 323 327 341 56 134 82 194 218 158 229 159 165 110 105 113 215 179 152 170 137
3 357 351 351 349 348 347 340 332 316 330 323 293 296 279 323 257 232 252 279 256 359 345 31 329 333 334 276 336 112 143 209 193 184 189 185 194 156 141 129 207 174 66 133 149
4 0 353 350 345 347 347 346 335 317 305 329 322 289 261 348 290 232 8 80 149 62 217 81 297 266 271 96 202 185 189 191 210 177 161 177 209 177 130 223 211 196 160 160 160
7 2 357 349 345 342 342 343 336 330 316 317 325 297 171 78 218 47 336 9 96 138 19 45 228 250 211 195 183 184 240 167 162 145 134 180 140 178 193 188 225 211 153 166 173
3 4 360 351 348 342 339 340 335 334 324 311 295 3 50 116 256 355 13 3 356 58 108 243 209 228 215 189 138 195 207 198 144 121 141 136 167 191 220 179 64 125 150 171 180
356 2 2 356 347 343 338 335 329 331 331 342 12 70 355 220 332 352 351 108 316 266 116 201 238 214 279 218 175 204 142 143 146 146 113 158 188 154 214 129 118 149 167 173 183
355 355 356 349 345 341 339 332 330 330 340 6 357 75 164 250 336 318 311 126 164 299 131 239 259 123 297 177 202 135 132 11 241 181 141 138 227 228 93 155 159 174 175 181 192
356 350 345 344 340 337 334 329 326 325 335 27 67 208 243 233 277 301 230 180 193 203 205 191 205 245 194 323 25 97 60 138 277 159 19 117 254 246 346 168 174 185 191 199 213
349 353 344 341 340 334 330 320 317 318 337 108 73 11 284 316 37 311 280 126 293 217 161 140 136 147 66 130 68 14 167 189 272 217 125 142 240 262 4 207 212 196 212 224 235
354 352 343 338 338 336 328 316 312 344 13 100 194 303 332 332 295 325 295 300 87 108 78 93 68 105 36 131 197 172 179 217 202 203 116 177 257 272 238 302 231 246 236 240 240
344 348 341 337 338 337 346 4 12 353 38 354 297 293 331 304 265 8 331 265 87 33 137 120 143 203 207 148 14 149 143 154 204 16 152 207 270 258 247 292 267 253 247 246 242
346 344 342 339 337 344 24 58 44 295 313 300 284 274 261 323 305 9 25 33 99 176 117 61 222 191 136 206 42 118 138 163 37 11 134 94 267 260 245 239 224 236 246 240 246
346 343 340 336 332 23 27 57 318 277 300 302 281 283 277 294 19 335 28 57 91 131 150 155 235 155 130 142 176 268 168 171 132 105 49 311 287 252 258 252 265 252 250 266 239
336 339 345 337 54 308 10 346 334 350 50 310 322 335 323 302 21 359 349 13 32 168 167 212 53 128 105 183 170 211 209 147 133 121 218 335 269 290 289 283 246 263 248 247 243
321 333 358 40 225 39 308 318 336 56 55 296 328 284 312 100 356 34 351 356 172 177 116 236 159 146 150 194 153 273 124 110 92 94 93 321 78 272 342 288 271 300 282 275 252
295 324 11 28 33 283 304 323 58 45 282 334 345 340 24 311 112 48 46 357 284 103 30 249 296 259 192 89 130 174 77 55 53 86 338 239 166 266 205 204 32 13 350 2 84
147 70 61 108 274 315 322 38 39 106 306 336 357 327 353 358 276 118 145 57 87 91 203 6 316 310 146 89 70 33 41 10 353 7 232 326 232 254 264 238 221 230 288 158 128
101 88 334 71 328 349 45 52 74 250 269 304 346 341 9 359 326 186 145 178 185 113 279 148 297 194 186 204 152 176 147 196 228 239 296 354 244 249 248 260 264 276 229 173 177
97 10 17 335 341 43 67 58 191 202 283 339 302 57 2 359 323 325 190 200 185 174 142 163 227 332 38 250 131 169 167 189 193 6 7 253 291 287 290 301 205 202 175 185 189
81 57 347 316 6 56 72 215 194 216 339 351 46 1 66 347 20 330 268 337 154 161 203 162 184 338 317 195 35 133 151 99 353 167 237 277 272 250 304 268 273 234 211 196 168
59 59 282 345 52 46 131 222 263 252 217 26 205 308 41 25 71 338 359 20 9 344 98 113 266 271 51 294 169 110 128 153 158 157 189 241 257 222 262 300 299 242 213 209 186
94 48 293 29 54 19 140 195 285 290 160 272 290 165 284 331 24 47 2 358 4 360 137 154 191 176 165 5 59 248 181 172 186 214 224 237 262 255 259 282 261 254 224 218 204
101 107 36 85 121 285 186 284 235 279 259 140 239 185 338 339 11 16 347 101 171 77 22 12 251 118 46 339 355 191 212 164 90 77 210 167 256 275 298 322 313 242 215 203 193
94 90 326 104 159 142 150 270 297 283 271 299 240 149 93 348 308 339 339 2 184 331 164 67 14 24 186 48 346 286 27 248 165 211 224 237 265 310 323 318 319 310 283 229 223
104 224 194 184 195 162 153 163 180 283 304 314 299 210 155 223 335 180 350 327 359 306 58 128 210 348 263 226 212 220 227 248 226 231 208 255 261 260 253 269 266 236 243 256 250
148 159 80 197 177 169 189 211 199 222 151 278 204 275 195 203 180 139 73 198 273 19 78 77 210 94 304 301 229 257 261 237 230 241 243 257 269 181 241 241 252 243 219 230 239
139 132 125 184 162 175 200 193 199 160 230 216 197 195 228 235 224 236 215 242 225 254 200 98 122 79 286 347 10 313 228 218 220 217 212 241 247 181 230 228 236 234 216 234 239